カタログに戻る

COSMOS 1743

運用中ナビゲーションPO
NORAD 16719·PAYLOAD·🇷🇺 Russia

打ち上げ May 15, 1986 から Plesetsk Cosmodrome

Loading…

次のパス (今後24時間)

TLE

最新Source: Space-Track

元期: Sep 14, 2026, 08:50 UTC

1 16719U 86034A   26257.36849950  .00062719  00000-0  40248-3 0  9997
2 16719  82.5224 233.2762 0001756  89.4120 270.7347 15.76022307209797

AllMySatでCOSMOS 1743をリアルタイム追跡

Download on the App Store